STARLINK-1658 (46368 NORAD) Tracking and Keplerian Element Data

This shows tracking and keplerian element data for the satellite.

Feedback or suggestion? Click here.




ElementValue
Catalog46368
NameSTARLINK-1658
Epoch Orbit1469
Epoch Day336.16667824
Epoch Year2020
RAAN356.901
Inclination52.9979
Eccentricity0.0001281
Argument of Perigee60.7555
Mean Anonmoly288.885
Mean Motion15.31093166
Decay Rate-0.01071164
L11 46368U 20062AV 20336.16667824 -.01071164 00000-0 -38363-1 0 9997
L22 46368 52.9979 356.9010 0001281 60.7555 288.8850 15.31093166 14698

Live tracking and technical data element details for STARLINK-1658 (NORAD 46368). STARLINK-1658 can be tracked NOW for your location showing map with azimuth and elevation plus other details from your city location.

Track the satellite on the map from your city or location and see movement details for azimuth, elevation, latitude, longitude, range, height, and movement on the map or in text.







IsCatalogInMostPopularTable: catalog: 46368, numindb: 22
Update: records affected: 1



GetName: 46368 STARLINK-1658

Hit Count: updated at: Wed, 02 Dec 2020 05:33:14 GMT